Regional Weather Roundup
Issued by NWS Goodland, KS

Home | Current Version | Previous Version | Graphics & Text | Print | Product List | Glossary On
Versions: 1 2 3 4 5 6 7 8 9 10 11 12 13 14 15 16 17 18 19 20 21 22 23 24 25 26 27 28 29 30 31 32 33 34 35 36 37 38 39 40 41 42 43 44 45 46 47 48 49 50
000
ASUS43 KGLD 281708
RWRGLD

GOODLAND FORECAST AREA HOURLY WEATHER ROUNDUP
NATIONAL WEATHER SERVICE GOODLAND KS
1100 AM MDT SAT MAR 28 2015

...OFFICIAL OBSERVATIONS...

CITY           SKY/WX    TMP DP  RH WIND       PRES   REMARKS
GOODLAND KS    SUNNY     69  32  25 VRB3      30.03S
HILL CITY KS   SUNNY     59  35  40 E9        30.04S
IMPERIAL NEB     N/A     65  35  33 SE8       29.99F
MCCOOK NEB     SUNNY     64  36  35 SE10G18   30.01F
AKRON CO       SUNNY     69  28  21 NW9       30.04F
BURLINGTON CO  SUNNY     71  28  20 W6        30.04F
LIMON CO       SUNNY     69  25  19 N9        30.10F
$$

...UNOFFICIAL OBSERVATIONS...

CITY           SKY/WX    TMP DP  RH WIND       PRES   REMARKS
COLBY KS       SUNNY     66  41  39 SE7       30.04S
GOVE KS          N/A     63  32  31 MISG        N/A
LENORA KS        N/A     58  32  37 MISG        N/A
NORTON KS      SUNNY     57  30  35 E8        30.02F
SHARON SPRINGS   N/A     73  35  25 CALM        N/A
TRIBUNE KS     SUNNY     73  43  33 CALM      30.06S
KIT CARSON CO    N/A     75  35  23 MISG        N/A
YUMA CO          N/A     72  29  20 NW7G14      N/A
$$


USA.gov is the U.S. government's official web portal to all federal, state and local government web resources and services.